This is the latest recevied weather packets stored in our database for station/object KD8OZS. If no packets are shown the sender has not sent any weather packets the latest 10 day(s).
| Time | Temp. | Humidity | Pressure | Rain* | Wind** | Luminosity | Snow |
|---|---|---|---|---|---|---|---|
| 1787747078 | 14.44° C | 99% | 1010.6 hPa | 0 mm | - | 84 W/m² | - |
| 1787746774 | 13.89° C | 99% | 1010.9 hPa | 0 mm | - | 117 W/m² | - |
| 1787746473 | 13.89° C | 99% | 1010.6 hPa | 0 mm | - | 133 W/m² | - |
| 1787746167 | 13.89° C | 99% | 1010.9 hPa | 0 mm | - | 72 W/m² | - |
| 1787745861 | 13.33° C | 99% | 1011 hPa | 0 mm | - | 67 W/m² | - |
| 1787745560 | 13.33° C | 99% | 1010.8 hPa | 0 mm | - | 69 W/m² | - |
| 1787745255 | 13.33° C | 99% | 1011.2 hPa | 0 mm | - | 62 W/m² | - |
| 1787744950 | 13.33° C | 99% | 1011 hPa | 0 mm | - | 46 W/m² | - |
| 1787744646 | 13.33° C | 99% | 1010.9 hPa | 0 mm | - | 42 W/m² | - |
| 1787744342 | 13.33° C | 99% | 1010.9 hPa | 0 mm | - | 35 W/m² | - |
| 1787744038 | 12.78° C | 99% | 1010.8 hPa | 0 mm | - | 39 W/m² | - |
| 1787743737 | 12.78° C | 99% | 1010.8 hPa | 0 mm | - | 34 W/m² | - |
| 1787743431 | 12.78° C | 99% | 1010.7 hPa | 0 mm | - | 24 W/m² | - |
| 1787743128 | 12.78° C | 99% | 1010.8 hPa | 0 mm | - | 20 W/m² | - |
| 1787742828 | 12.78° C | 99% | 1010.9 hPa | 0 mm | - | 15 W/m² | - |
| 1787742524 | 12.78° C | 99% | 1010.9 hPa | 0 mm | - | 12 W/m² | - |
| 1787742220 | 12.78° C | 99% | 1010.8 hPa | 0 mm | - | 8 W/m² | - |
| 1787741915 | 12.78° C | 99% | 1010.7 hPa | 0 mm | - | 6 W/m² | - |
| 1787741611 | 12.78° C | 99% | 1010.8 hPa | 0 mm | - | 3 W/m² | - |
| 1787741307 | 12.78° C | 99% | 1010.8 hPa | 0 mm | - | 1 W/m² | - |
| 1787741005 | 12.78° C | 99% | 1010.8 hPa | 0 mm | - | 0 W/m² | - |
| 1787740700 | 12.78° C | 99% | 1010.7 hPa | 0 mm | - | 0 W/m² | - |
| 1787740395 | 12.78° C | 99% | 1010.7 hPa | 0 mm | - | 0 W/m² | - |
| 1787740094 | 12.78° C | 99% | 1010.7 hPa | 0 mm | - | 0 W/m² | - |
| 1787739790 | 13.33° C | 99% | 1010.7 hPa | 0 mm | - | 0 W/m² | - |
* Rain latest hour (hover to see other rain measurements)
** Current wind speed in m/s (hover to see current wind gust speed)